Wetterdaten: Montag, 13.08.2018
Datum Zeit Temp. A. Temp. A. min Temp. A. max Feuchte A. Bod.Feucht 4 Luftdruck Regen Wind Richtung Richtung Sonnenschein ET Solar Taupunkt Windchill Windben Empfang
13.08.2018 00:00 16,3 C 16,3 C 16,6 C 67 % 0 cb 1010,7 hPa 0,0 l/m 0,0 km/h (0 Bft) N-NW 337 0 min 0,025 mm 0 W/m 10,2 C 16,3 C 1,6 km/h (1 Bft) 100,00 %
13.08.2018 00:10 16,1 C 16,1 C 16,2 C 67 % 0 cb 1010,6 hPa 0,0 l/m 0,0 km/h (0 Bft) N-NW 337 0 min 0,000 mm 0 W/m 10,0 C 16,1 C 1,6 km/h (1 Bft) 79,39 %
13.08.2018 00:20 16,0 C 15,9 C 16,1 C 68 % 0 cb 1010,6 hPa 0,0 l/m 1,6 km/h (1 Bft) N-NW 337 0 min 0,000 mm 0 W/m 10,1 C 16,0 C 4,8 km/h (1 Bft) 100,00 %
13.08.2018 00:30 15,9 C 15,9 C 16,1 C 67 % 0 cb 1010,6 hPa 0,0 l/m 0,0 km/h (0 Bft) N-NW 337 0 min 0,000 mm 0 W/m 9,8 C 15,9 C 1,6 km/h (1 Bft) 100,00 %
13.08.2018 00:40 15,7 C 15,7 C 15,9 C 69 % 0 cb 1010,6 hPa 0,0 l/m 0,0 km/h (0 Bft) N-NW 337 0 min 0,000 mm 0 W/m 10,0 C 15,7 C 1,6 km/h (1 Bft) 100,00 %
13.08.2018 00:50 15,4 C 15,4 C 15,7 C 69 % 0 cb 1010,5 hPa 0,0 l/m 0,0 km/h (0 Bft) N-NW 337 0 min 0,000 mm 0 W/m 9,7 C 15,4 C 1,6 km/h (1 Bft) 100,00 %
13.08.2018 01:00 15,2 C 15,2 C 15,4 C 70 % 0 cb 1010,5 hPa 0,0 l/m 0,0 km/h (0 Bft) N-NW 337 0 min 0,025 mm 0 W/m 9,8 C 15,2 C 1,6 km/h (1 Bft) 100,00 %
13.08.2018 01:10 15,1 C 15,1 C 15,2 C 69 % 0 cb 1010,4 hPa 0,0 l/m 0,0 km/h (0 Bft) N 0 0 min 0,000 mm 0 W/m 9,5 C 15,1 C 0,0 km/h (0 Bft) 100,00 %
13.08.2018 01:20 15,0 C 15,0 C 15,1 C 69 % 0 cb 1010,3 hPa 0,0 l/m 0,0 km/h (0 Bft) N-NW 337 0 min 0,000 mm 0 W/m 9,4 C 15,0 C 3,2 km/h (1 Bft) 100,00 %
13.08.2018 01:30 15,1 C 15,0 C 15,1 C 69 % 0 cb 1010,2 hPa 0,0 l/m 0,0 km/h (0 Bft) N-NW 337 0 min 0,000 mm 0 W/m 9,5 C 15,1 C 3,2 km/h (1 Bft) 100,00 %
13.08.2018 01:40 15,1 C 15,1 C 15,1 C 70 % 0 cb 1010,1 hPa 0,0 l/m 0,0 km/h (0 Bft) N-NW 337 0 min 0,000 mm 0 W/m 9,7 C 15,1 C 3,2 km/h (1 Bft) 100,00 %
13.08.2018 01:50 14,8 C 14,8 C 15,1 C 71 % 0 cb 1010,0 hPa 0,0 l/m 0,0 km/h (0 Bft) N-NW 337 0 min 0,000 mm 0 W/m 9,6 C 14,8 C 1,6 km/h (1 Bft) 90,35 %
13.08.2018 02:00 14,7 C 14,7 C 14,8 C 72 % 0 cb 1009,8 hPa 0,0 l/m 0,0 km/h (0 Bft) N-NW 337 0 min 0,025 mm 0 W/m 9,7 C 14,7 C 3,2 km/h (1 Bft) 100,00 %
13.08.2018 02:10 14,7 C 14,7 C 14,7 C 72 % 0 cb 1009,6 hPa 0,0 l/m 0,0 km/h (0 Bft) N-NW 337 0 min 0,000 mm 0 W/m 9,7 C 14,7 C 1,6 km/h (1 Bft) 100,00 %
13.08.2018 02:20 14,7 C 14,7 C 14,7 C 72 % 0 cb 1009,4 hPa 0,0 l/m 0,0 km/h (0 Bft) N-NW 337 0 min 0,000 mm 0 W/m 9,7 C 14,7 C 1,6 km/h (1 Bft) 100,00 %
13.08.2018 02:30 14,6 C 14,6 C 14,7 C 74 % 0 cb 1009,3 hPa 0,0 l/m 0,0 km/h (0 Bft) N 0 0 min 0,000 mm 0 W/m 10,0 C 14,6 C 0,0 km/h (0 Bft) 100,00 %
13.08.2018 02:40 14,4 C 14,4 C 14,6 C 75 % 0 cb 1009,2 hPa 0,0 l/m 0,0 km/h (0 Bft) N 0 0 min 0,000 mm 0 W/m 10,0 C 14,4 C 0,0 km/h (0 Bft) 100,00 %
13.08.2018 02:50 14,2 C 14,2 C 14,4 C 76 % 0 cb 1009,1 hPa 0,0 l/m 0,0 km/h (0 Bft) N-NW 337 0 min 0,000 mm 0 W/m 10,0 C 14,2 C 1,6 km/h (1 Bft) 99,56 %
13.08.2018 03:00 13,9 C 13,9 C 14,2 C 77 % 0 cb 1009,1 hPa 0,0 l/m 0,0 km/h (0 Bft) N-NW 337 0 min 0,025 mm 0 W/m 9,9 C 13,9 C 1,6 km/h (1 Bft) 100,00 %
13.08.2018 03:10 13,8 C 13,8 C 13,9 C 78 % 0 cb 1009,0 hPa 0,0 l/m 0,0 km/h (0 Bft) N-NW 337 0 min 0,000 mm 0 W/m 10,0 C 13,8 C 1,6 km/h (1 Bft) 100,00 %
13.08.2018 03:20 13,7 C 13,7 C 13,8 C 78 % 0 cb 1008,9 hPa 0,0 l/m 0,0 km/h (0 Bft) N 0 0 min 0,000 mm 0 W/m 9,9 C 13,7 C 0,0 km/h (0 Bft) 100,00 %
13.08.2018 03:30 13,7 C 13,7 C 13,7 C 79 % 0 cb 1008,7 hPa 0,0 l/m 0,0 km/h (0 Bft) N 0 0 min 0,000 mm 0 W/m 10,1 C 13,7 C 0,0 km/h (0 Bft) 100,00 %
13.08.2018 03:40 13,6 C 13,6 C 13,7 C 80 % 0 cb 1008,5 hPa 0,0 l/m 0,0 km/h (0 Bft) N 0 0 min 0,000 mm 0 W/m 10,2 C 13,6 C 0,0 km/h (0 Bft) 100,00 %
13.08.2018 03:50 13,6 C 13,6 C 13,6 C 80 % 0 cb 1008,4 hPa 0,0 l/m 0,0 km/h (0 Bft) N-NW 337 0 min 0,000 mm 0 W/m 10,2 C 13,6 C 1,6 km/h (1 Bft) 100,00 %
13.08.2018 04:00 13,6 C 13,5 C 13,6 C 81 % 0 cb 1008,3 hPa 0,0 l/m 0,0 km/h (0 Bft) N-NW 337 0 min 0,025 mm 0 W/m 10,4 C 13,6 C 1,6 km/h (1 Bft) 100,00 %
13.08.2018 04:10 13,7 C 13,5 C 13,7 C 80 % 0 cb 1007,9 hPa 0,0 l/m 1,6 km/h (1 Bft) N-NW 337 0 min 0,000 mm 0 W/m 10,3 C 13,7 C 3,2 km/h (1 Bft) 100,00 %
13.08.2018 04:20 14,2 C 13,7 C 14,2 C 77 % 0 cb 1007,9 hPa 0,0 l/m 1,6 km/h (1 Bft) N 360 0 min 0,000 mm 0 W/m 10,2 C 14,2 C 6,4 km/h (2 Bft) 100,00 %
13.08.2018 04:30 14,4 C 14,2 C 14,4 C 78 % 0 cb 1008,2 hPa 0,0 l/m 1,6 km/h (1 Bft) N 360 0 min 0,000 mm 0 W/m 10,6 C 14,4 C 3,2 km/h (1 Bft) 100,00 %
13.08.2018 04:40 14,2 C 14,2 C 14,4 C 78 % 0 cb 1008,5 hPa 0,0 l/m 1,6 km/h (1 Bft) N-NW 337 0 min 0,000 mm 0 W/m 10,4 C 14,2 C 6,4 km/h (2 Bft) 100,00 %
13.08.2018 04:50 14,3 C 14,1 C 14,3 C 78 % 0 cb 1008,6 hPa 0,0 l/m 1,6 km/h (1 Bft) W 270 0 min 0,000 mm 0 W/m 10,5 C 14,3 C 9,7 km/h (2 Bft) 100,00 %
13.08.2018 05:00 14,7 C 14,3 C 14,7 C 78 % 0 cb 1008,2 hPa 0,0 l/m 1,6 km/h (1 Bft) W 270 0 min 0,025 mm 0 W/m 10,9 C 14,7 C 8,0 km/h (2 Bft) 100,00 %
13.08.2018 05:10 15,4 C 14,7 C 15,4 C 74 % 0 cb 1008,0 hPa 0,0 l/m 4,8 km/h (1 Bft) NO 45 0 min 0,000 mm 0 W/m 10,8 C 15,4 C 8,0 km/h (2 Bft) 100,00 %
13.08.2018 05:20 15,7 C 15,4 C 15,7 C 73 % 0 cb 1007,8 hPa 0,0 l/m 1,6 km/h (1 Bft) NO 45 0 min 0,000 mm 0 W/m 10,9 C 15,7 C 8,0 km/h (2 Bft) 100,00 %
13.08.2018 05:30 15,3 C 15,3 C 15,7 C 73 % 0 cb 1007,7 hPa 0,0 l/m 3,2 km/h (1 Bft) NO 45 0 min 0,000 mm 0 W/m 10,5 C 15,3 C 8,0 km/h (2 Bft) 100,00 %
13.08.2018 05:40 15,1 C 15,1 C 15,3 C 74 % 0 cb 1007,7 hPa 0,0 l/m 0,0 km/h (0 Bft) NO 45 0 min 0,000 mm 0 W/m 10,5 C 15,1 C 3,2 km/h (1 Bft) 100,00 %
13.08.2018 05:50 14,8 C 14,8 C 15,1 C 77 % 0 cb 1007,5 hPa 0,0 l/m 0,0 km/h (0 Bft) NO 45 0 min 0,000 mm 0 W/m 10,8 C 14,8 C 3,2 km/h (1 Bft) 100,00 %
13.08.2018 06:00 14,7 C 14,7 C 14,8 C 77 % 0 cb 1007,2 hPa 0,0 l/m 1,6 km/h (1 Bft) NO 45 0 min 0,025 mm 0 W/m 10,7 C 14,7 C 4,8 km/h (1 Bft) 100,00 %
13.08.2018 06:10 14,7 C 14,7 C 14,7 C 78 % 0 cb 1007,1 hPa 0,0 l/m 0,0 km/h (0 Bft) NO 45 0 min 0,000 mm 0 W/m 10,9 C 14,7 C 3,2 km/h (1 Bft) 100,00 %
13.08.2018 06:20 14,6 C 14,6 C 14,7 C 78 % 0 cb 1007,2 hPa 0,0 l/m 1,6 km/h (1 Bft) NO 45 0 min 0,000 mm 0 W/m 10,8 C 14,6 C 4,8 km/h (1 Bft) 100,00 %
13.08.2018 06:30 14,4 C 14,4 C 14,6 C 81 % 0 cb 1007,9 hPa 0,0 l/m 1,6 km/h (1 Bft) NO 45 0 min 0,000 mm 0 W/m 11,2 C 14,4 C 3,2 km/h (1 Bft) 100,00 %
13.08.2018 06:40 14,4 C 14,4 C 14,4 C 85 % 0 cb 1007,7 hPa 1,2 l/m 1,6 km/h (1 Bft) N-NO 22 0 min 0,000 mm 0 W/m 11,9 C 14,4 C 6,4 km/h (2 Bft) 100,00 %
13.08.2018 06:50 14,5 C 14,4 C 14,6 C 87 % 0 cb 1008,2 hPa 0,8 l/m 3,2 km/h (1 Bft) NO 45 0 min 0,000 mm 7 W/m 12,4 C 14,5 C 8,0 km/h (2 Bft) 100,00 %
13.08.2018 07:00 14,3 C 14,3 C 14,5 C 89 % 0 cb 1008,3 hPa 0,2 l/m 1,6 km/h (1 Bft) N-NW 337 0 min 0,000 mm 7 W/m 12,5 C 14,3 C 6,4 km/h (2 Bft) 100,00 %
13.08.2018 07:10 14,3 C 14,3 C 14,3 C 91 % 0 cb 1008,2 hPa 0,0 l/m 3,2 km/h (1 Bft) NO 45 0 min 0,000 mm 7 W/m 12,8 C 14,3 C 8,0 km/h (2 Bft) 100,00 %
13.08.2018 07:20 14,3 C 14,3 C 14,3 C 92 % 0 cb 1008,7 hPa 0,2 l/m 1,6 km/h (1 Bft) NO 45 0 min 0,000 mm 7 W/m 13,0 C 14,3 C 4,8 km/h (1 Bft) 100,00 %
13.08.2018 07:30 14,2 C 14,2 C 14,3 C 91 % 0 cb 1009,2 hPa 0,0 l/m 1,6 km/h (1 Bft) NO 45 0 min 0,000 mm 7 W/m 12,8 C 14,2 C 6,4 km/h (2 Bft) 100,00 %
13.08.2018 07:40 14,1 C 14,1 C 14,2 C 91 % 0 cb 1009,4 hPa 0,2 l/m 1,6 km/h (1 Bft) NO 45 0 min 0,000 mm 0 W/m 12,7 C 14,1 C 6,4 km/h (2 Bft) 100,00 %
13.08.2018 07:50 14,2 C 14,1 C 14,2 C 92 % 0 cb 1009,6 hPa 0,2 l/m 0,0 km/h (0 Bft) NO 45 0 min 0,000 mm 5 W/m 12,9 C 14,2 C 4,8 km/h (1 Bft) 100,00 %
13.08.2018 08:00 14,5 C 14,2 C 14,5 C 94 % 0 cb 1009,6 hPa 0,8 l/m 1,6 km/h (1 Bft) S-SW 202 0 min 0,000 mm 7 W/m 13,5 C 14,5 C 8,0 km/h (2 Bft) 100,00 %
13.08.2018 08:10 15,1 C 14,5 C 15,1 C 95 % 0 cb 1009,6 hPa 0,8 l/m 3,2 km/h (1 Bft) W 270 0 min 0,000 mm 12 W/m 14,3 C 15,1 C 8,0 km/h (2 Bft) 100,00 %
13.08.2018 08:20 15,6 C 15,1 C 15,6 C 95 % 0 cb 1009,4 hPa 0,4 l/m 6,4 km/h (2 Bft) W 270 0 min 0,000 mm 18 W/m 14,8 C 15,6 C 19,3 km/h (3 Bft) 100,00 %
13.08.2018 08:30 15,7 C 15,6 C 15,7 C 94 % 0 cb 1009,4 hPa 0,4 l/m 9,7 km/h (2 Bft) W 270 0 min 0,000 mm 21 W/m 14,7 C 15,7 C 19,3 km/h (3 Bft) 100,00 %
13.08.2018 08:40 15,5 C 15,5 C 15,7 C 93 % 0 cb 1009,1 hPa 0,4 l/m 8,0 km/h (2 Bft) W 270 0 min 0,000 mm 28 W/m 14,4 C 15,5 C 16,1 km/h (3 Bft) 100,00 %
13.08.2018 08:50 15,4 C 15,4 C 15,5 C 93 % 0 cb 1009,2 hPa 0,2 l/m 6,4 km/h (2 Bft) W 270 0 min 0,000 mm 32 W/m 14,3 C 15,4 C 17,7 km/h (3 Bft) 100,00 %
13.08.2018 09:00 15,3 C 15,3 C 15,4 C 93 % 0 cb 1008,8 hPa 0,2 l/m 4,8 km/h (1 Bft) W 270 0 min 0,025 mm 65 W/m 14,2 C 15,3 C 14,5 km/h (3 Bft) 100,00 %
13.08.2018 09:10 15,4 C 15,3 C 15,4 C 94 % 0 cb 1008,9 hPa 0,0 l/m 3,2 km/h (1 Bft) W-NW 292 0 min 0,000 mm 65 W/m 14,4 C 15,4 C 8,0 km/h (2 Bft) 100,00 %
13.08.2018 09:20 15,6 C 15,4 C 15,6 C 94 % 0 cb 1008,7 hPa 0,2 l/m 0,0 km/h (0 Bft) S-SW 202 0 min 0,000 mm 67 W/m 14,6 C 15,6 C 4,8 km/h (1 Bft) 100,00 %
13.08.2018 09:30 15,7 C 15,6 C 15,7 C 94 % 0 cb 1008,7 hPa 0,0 l/m 1,6 km/h (1 Bft) SW 225 0 min 0,000 mm 79 W/m 14,7 C 15,7 C 6,4 km/h (2 Bft) 100,00 %
13.08.2018 09:40 15,8 C 15,7 C 15,8 C 94 % 0 cb 1008,9 hPa 0,2 l/m 3,2 km/h (1 Bft) SO 135 0 min 0,000 mm 67 W/m 14,8 C 15,8 C 11,3 km/h (2 Bft) 100,00 %
13.08.2018 09:50 15,8 C 15,8 C 15,8 C 94 % 0 cb 1008,9 hPa 0,0 l/m 1,6 km/h (1 Bft) S-SO 157 0 min 0,000 mm 98 W/m 14,8 C 15,8 C 8,0 km/h (2 Bft) 100,00 %
13.08.2018 10:00 15,8 C 15,8 C 15,8 C 94 % 0 cb 1009,2 hPa 0,0 l/m 1,6 km/h (1 Bft) S-SO 157 0 min 0,051 mm 114 W/m 14,8 C 15,8 C 4,8 km/h (1 Bft) 100,00 %
13.08.2018 10:10 16,0 C 15,8 C 16,0 C 95 % 0 cb 1009,4 hPa 0,0 l/m 0,0 km/h (0 Bft) SO 135 0 min 0,000 mm 109 W/m 15,2 C 16,0 C 3,2 km/h (1 Bft) 100,00 %
13.08.2018 10:20 16,1 C 16,0 C 16,1 C 95 % 0 cb 1009,4 hPa 0,0 l/m 1,6 km/h (1 Bft) SO 135 0 min 0,000 mm 95 W/m 15,3 C 16,1 C 6,4 km/h (2 Bft) 100,00 %
13.08.2018 10:30 16,3 C 16,1 C 16,3 C 95 % 0 cb 1009,4 hPa 0,0 l/m 3,2 km/h (1 Bft) S 180 0 min 0,000 mm 125 W/m 15,5 C 16,3 C 8,0 km/h (2 Bft) 100,00 %
13.08.2018 10:40 16,6 C 16,3 C 16,6 C 96 % 0 cb 1009,4 hPa 0,0 l/m 3,2 km/h (1 Bft) S 180 10 min 0,000 mm 160 W/m 16,0 C 16,6 C 12,9 km/h (3 Bft) 100,00 %
13.08.2018 10:50 16,7 C 16,5 C 16,7 C 95 % 0 cb 1009,4 hPa 0,0 l/m 4,8 km/h (1 Bft) S-SW 202 0 min 0,000 mm 77 W/m 15,9 C 16,7 C 12,9 km/h (3 Bft) 100,00 %
13.08.2018 11:00 16,8 C 16,7 C 16,8 C 96 % 0 cb 1009,4 hPa 0,0 l/m 4,8 km/h (1 Bft) S 180 0 min 0,051 mm 62 W/m 16,2 C 16,8 C 9,7 km/h (2 Bft) 100,00 %
13.08.2018 11:10 16,9 C 16,8 C 16,9 C 95 % 0 cb 1009,4 hPa 0,0 l/m 6,4 km/h (2 Bft) S 180 0 min 0,000 mm 58 W/m 16,1 C 16,9 C 20,9 km/h (4 Bft) 100,00 %
13.08.2018 11:20 16,9 C 16,9 C 16,9 C 95 % 0 cb 1009,4 hPa 0,0 l/m 8,0 km/h (2 Bft) S 180 0 min 0,000 mm 51 W/m 16,1 C 16,9 C 20,9 km/h (4 Bft) 100,00 %
13.08.2018 11:30 16,9 C 16,9 C 16,9 C 95 % 0 cb 1009,5 hPa 0,0 l/m 8,0 km/h (2 Bft) S 180 0 min 0,000 mm 46 W/m 16,1 C 16,9 C 17,7 km/h (3 Bft) 100,00 %
13.08.2018 11:40 17,0 C 16,9 C 17,0 C 95 % 0 cb 1009,7 hPa 0,0 l/m 6,4 km/h (2 Bft) S-SW 202 0 min 0,000 mm 53 W/m 16,2 C 17,0 C 17,7 km/h (3 Bft) 100,00 %
13.08.2018 11:50 17,2 C 17,0 C 17,2 C 95 % 0 cb 1009,6 hPa 0,0 l/m 4,8 km/h (1 Bft) S-SW 202 10 min 0,000 mm 214 W/m 16,4 C 17,2 C 16,1 km/h (3 Bft) 100,00 %
13.08.2018 12:00 17,6 C 17,1 C 17,6 C 96 % 0 cb 1009,6 hPa 0,0 l/m 6,4 km/h (2 Bft) S-SW 202 10 min 0,051 mm 292 W/m 17,0 C 17,6 C 16,1 km/h (3 Bft) 100,00 %
13.08.2018 12:10 17,8 C 17,6 C 17,8 C 96 % 0 cb 1009,7 hPa 0,0 l/m 4,8 km/h (1 Bft) S-SW 202 10 min 0,000 mm 220 W/m 17,2 C 17,8 C 16,1 km/h (3 Bft) 100,00 %
13.08.2018 12:20 17,9 C 17,8 C 17,9 C 95 % 0 cb 1009,8 hPa 0,0 l/m 4,8 km/h (1 Bft) S-SW 202 10 min 0,000 mm 281 W/m 17,1 C 17,9 C 17,7 km/h (3 Bft) 100,00 %
13.08.2018 12:30 18,4 C 17,9 C 18,4 C 96 % 0 cb 1009,5 hPa 0,0 l/m 4,8 km/h (1 Bft) S-SW 202 10 min 0,000 mm 445 W/m 17,7 C 18,4 C 17,7 km/h (3 Bft) 98,25 %
13.08.2018 12:40 19,0 C 18,4 C 19,0 C 94 % 0 cb 1009,5 hPa 0,0 l/m 9,7 km/h (2 Bft) S 180 10 min 0,000 mm 522 W/m 18,0 C 19,0 C 22,5 km/h (4 Bft) 99,56 %
13.08.2018 12:50 19,2 C 19,0 C 19,2 C 90 % 0 cb 1009,4 hPa 0,0 l/m 8,0 km/h (2 Bft) S 180 10 min 0,000 mm 504 W/m 17,5 C 19,2 C 19,3 km/h (3 Bft) 100,00 %
13.08.2018 13:00 19,0 C 19,0 C 19,2 C 88 % 0 cb 1009,3 hPa 0,0 l/m 11,3 km/h (2 Bft) S 180 10 min 0,203 mm 492 W/m 17,0 C 19,0 C 22,5 km/h (4 Bft) 100,00 %
13.08.2018 13:10 19,3 C 19,0 C 19,3 C 88 % 0 cb 1009,3 hPa 0,0 l/m 8,0 km/h (2 Bft) S-SW 202 10 min 0,000 mm 332 W/m 17,3 C 19,3 C 20,9 km/h (4 Bft) 100,00 %
13.08.2018 13:20 19,3 C 19,3 C 19,4 C 87 % 0 cb 1009,2 hPa 0,0 l/m 8,0 km/h (2 Bft) S 180 10 min 0,000 mm 316 W/m 17,1 C 19,3 C 20,9 km/h (4 Bft) 100,00 %
13.08.2018 13:30 19,2 C 19,2 C 19,3 C 87 % 0 cb 1009,1 hPa 0,0 l/m 8,0 km/h (2 Bft) S-SW 202 10 min 0,000 mm 181 W/m 17,0 C 19,2 C 17,7 km/h (3 Bft) 100,00 %
13.08.2018 13:40 19,5 C 19,1 C 19,5 C 87 % 0 cb 1009,0 hPa 0,0 l/m 8,0 km/h (2 Bft) S 180 10 min 0,000 mm 997 W/m 17,3 C 19,5 C 25,7 km/h (4 Bft) 100,00 %
13.08.2018 13:50 20,1 C 19,5 C 20,1 C 87 % 0 cb 1009,0 hPa 0,0 l/m 6,4 km/h (2 Bft) S-SW 202 10 min 0,000 mm 533 W/m 17,9 C 20,1 C 19,3 km/h (3 Bft) 100,00 %
13.08.2018 14:00 20,8 C 20,1 C 20,8 C 81 % 0 cb 1009,0 hPa 0,0 l/m 6,4 km/h (2 Bft) S-SW 202 10 min 0,203 mm 1030 W/m 17,4 C 20,8 C 22,5 km/h (4 Bft) 100,00 %
13.08.2018 14:10 21,1 C 20,9 C 21,1 C 78 % 0 cb 1008,8 hPa 0,0 l/m 6,4 km/h (2 Bft) W 270 10 min 0,000 mm 461 W/m 17,1 C 21,1 C 19,3 km/h (3 Bft) 100,00 %
13.08.2018 14:20 21,3 C 21,1 C 21,3 C 77 % 0 cb 1008,7 hPa 0,0 l/m 8,0 km/h (2 Bft) S-SW 202 10 min 0,000 mm 371 W/m 17,1 C 21,3 C 19,3 km/h (3 Bft) 100,00 %
13.08.2018 14:30 20,9 C 20,9 C 21,3 C 75 % 0 cb 1008,7 hPa 0,0 l/m 6,4 km/h (2 Bft) W-NW 292 0 min 0,000 mm 142 W/m 16,3 C 20,9 C 19,3 km/h (3 Bft) 100,00 %
13.08.2018 14:40 21,3 C 20,8 C 21,3 C 80 % 0 cb 1008,5 hPa 0,0 l/m 4,8 km/h (1 Bft) S-SW 202 10 min 0,000 mm 907 W/m 17,7 C 21,3 C 16,1 km/h (3 Bft) 100,00 %
13.08.2018 14:50 21,3 C 21,3 C 21,6 C 74 % 0 cb 1008,4 hPa 0,0 l/m 6,4 km/h (2 Bft) W 270 10 min 0,000 mm 156 W/m 16,5 C 21,3 C 14,5 km/h (3 Bft) 100,00 %
13.08.2018 15:00 21,6 C 21,2 C 21,6 C 72 % 0 cb 1008,5 hPa 0,0 l/m 8,0 km/h (2 Bft) W-SW 247 10 min 0,254 mm 967 W/m 16,3 C 21,6 C 22,5 km/h (4 Bft) 100,00 %
13.08.2018 15:10 22,3 C 21,6 C 22,3 C 66 % 0 cb 1008,3 hPa 0,0 l/m 12,9 km/h (3 Bft) W 270 10 min 0,000 mm 821 W/m 15,6 C 22,3 C 25,7 km/h (4 Bft) 100,00 %
13.08.2018 15:20 22,6 C 22,3 C 22,6 C 65 % 0 cb 1008,3 hPa 0,0 l/m 11,3 km/h (2 Bft) W 270 10 min 0,000 mm 914 W/m 15,7 C 22,6 C 27,4 km/h (4 Bft) 100,00 %
13.08.2018 15:30 23,1 C 22,6 C 23,1 C 61 % 0 cb 1008,4 hPa 0,0 l/m 8,0 km/h (2 Bft) W 270 10 min 0,000 mm 756 W/m 15,2 C 23,1 C 20,9 km/h (4 Bft) 100,00 %
13.08.2018 15:40 23,3 C 23,1 C 23,4 C 60 % 0 cb 1008,4 hPa 0,0 l/m 9,7 km/h (2 Bft) W 270 10 min 0,000 mm 907 W/m 15,1 C 23,3 C 24,1 km/h (4 Bft) 100,00 %
13.08.2018 15:50 23,0 C 22,9 C 23,3 C 61 % 0 cb 1008,3 hPa 0,0 l/m 11,3 km/h (2 Bft) W 270 10 min 0,000 mm 837 W/m 15,1 C 23,0 C 25,7 km/h (4 Bft) 100,00 %
13.08.2018 16:00 23,3 C 23,0 C 23,3 C 56 % 0 cb 1008,4 hPa 0,0 l/m 11,3 km/h (2 Bft) W 270 10 min 0,457 mm 796 W/m 14,0 C 23,3 C 30,6 km/h (5 Bft) 100,00 %
13.08.2018 16:10 22,4 C 22,4 C 23,3 C 58 % 0 cb 1008,6 hPa 0,0 l/m 12,9 km/h (3 Bft) W-SW 247 10 min 0,000 mm 369 W/m 13,7 C 22,4 C 25,7 km/h (4 Bft) 100,00 %
13.08.2018 16:20 22,7 C 22,2 C 22,7 C 59 % 0 cb 1008,4 hPa 0,0 l/m 8,0 km/h (2 Bft) W 270 10 min 0,000 mm 882 W/m 14,3 C 22,7 C 22,5 km/h (4 Bft) 100,00 %
13.08.2018 16:30 23,4 C 22,7 C 23,4 C 57 % 0 cb 1008,4 hPa 0,0 l/m 6,4 km/h (2 Bft) W-SW 247 10 min 0,000 mm 649 W/m 14,4 C 23,4 C 22,5 km/h (4 Bft) 100,00 %
13.08.2018 16:40 23,7 C 23,4 C 23,7 C 54 % 0 cb 1008,5 hPa 0,0 l/m 9,7 km/h (2 Bft) W 270 10 min 0,000 mm 642 W/m 13,8 C 23,7 C 25,7 km/h (4 Bft) 100,00 %
13.08.2018 16:50 23,4 C 23,4 C 23,7 C 55 % 0 cb 1008,5 hPa 0,0 l/m 9,7 km/h (2 Bft) W 270 10 min 0,000 mm 671 W/m 13,8 C 23,4 C 25,7 km/h (4 Bft) 100,00 %
13.08.2018 17:00 22,7 C 22,7 C 23,4 C 58 % 0 cb 1008,4 hPa 0,0 l/m 8,0 km/h (2 Bft) W 270 10 min 0,356 mm 287 W/m 14,0 C 22,7 C 22,5 km/h (4 Bft) 100,00 %
13.08.2018 17:10 22,4 C 22,4 C 22,7 C 60 % 0 cb 1008,4 hPa 0,0 l/m 4,8 km/h (1 Bft) W-SW 247 10 min 0,000 mm 265 W/m 14,2 C 22,4 C 17,7 km/h (3 Bft) 100,00 %
13.08.2018 17:20 22,9 C 22,4 C 22,9 C 60 % 0 cb 1008,3 hPa 0,0 l/m 6,4 km/h (2 Bft) SW 225 10 min 0,000 mm 544 W/m 14,7 C 22,9 C 19,3 km/h (3 Bft) 100,00 %
13.08.2018 17:30 23,3 C 22,9 C 23,3 C 59 % 0 cb 1008,3 hPa 0,0 l/m 8,0 km/h (2 Bft) W 270 10 min 0,000 mm 585 W/m 14,8 C 23,3 C 25,7 km/h (4 Bft) 98,25 %
13.08.2018 17:40 22,7 C 22,7 C 23,3 C 59 % 0 cb 1008,5 hPa 0,0 l/m 6,4 km/h (2 Bft) W-SW 247 10 min 0,000 mm 193 W/m 14,3 C 22,7 C 22,5 km/h (4 Bft) 100,00 %
13.08.2018 17:50 22,1 C 22,1 C 22,7 C 61 % 0 cb 1008,4 hPa 0,0 l/m 8,0 km/h (2 Bft) SW 225 10 min 0,000 mm 185 W/m 14,2 C 22,1 C 22,5 km/h (4 Bft) 100,00 %
13.08.2018 18:00 21,8 C 21,8 C 22,1 C 61 % 0 cb 1008,5 hPa 0,0 l/m 6,4 km/h (2 Bft) S-SW 202 10 min 0,203 mm 162 W/m 13,9 C 21,8 C 20,9 km/h (4 Bft) 100,00 %
13.08.2018 18:10 21,6 C 21,6 C 21,8 C 62 % 0 cb 1008,4 hPa 0,0 l/m 6,4 km/h (2 Bft) S-SW 202 0 min 0,000 mm 107 W/m 14,0 C 21,6 C 25,7 km/h (4 Bft) 100,00 %
13.08.2018 18:20 21,4 C 21,4 C 21,6 C 63 % 0 cb 1008,5 hPa 0,0 l/m 6,4 km/h (2 Bft) W-SW 247 10 min 0,000 mm 190 W/m 14,1 C 21,4 C 19,3 km/h (3 Bft) 100,00 %
13.08.2018 18:30 21,4 C 21,4 C 21,4 C 63 % 0 cb 1008,4 hPa 0,0 l/m 8,0 km/h (2 Bft) W-SW 247 10 min 0,000 mm 178 W/m 14,1 C 21,4 C 20,9 km/h (4 Bft) 100,00 %
13.08.2018 18:40 21,6 C 21,4 C 21,6 C 63 % 0 cb 1008,5 hPa 0,0 l/m 6,4 km/h (2 Bft) W 270 10 min 0,000 mm 188 W/m 14,2 C 21,6 C 20,9 km/h (4 Bft) 100,00 %
13.08.2018 18:50 22,1 C 21,6 C 22,1 C 62 % 0 cb 1008,5 hPa 0,0 l/m 8,0 km/h (2 Bft) S-SW 202 10 min 0,000 mm 380 W/m 14,5 C 22,1 C 24,1 km/h (4 Bft) 100,00 %
13.08.2018 19:00 21,8 C 21,8 C 22,1 C 63 % 0 cb 1008,5 hPa 0,0 l/m 8,0 km/h (2 Bft) S-SW 202 0 min 0,127 mm 105 W/m 14,4 C 21,8 C 24,1 km/h (4 Bft) 100,00 %
13.08.2018 19:10 21,7 C 21,6 C 21,8 C 61 % 0 cb 1008,4 hPa 0,0 l/m 8,0 km/h (2 Bft) SW 225 10 min 0,000 mm 301 W/m 13,8 C 21,7 C 27,4 km/h (4 Bft) 100,00 %
13.08.2018 19:20 21,8 C 21,7 C 21,8 C 59 % 0 cb 1008,5 hPa 0,0 l/m 8,0 km/h (2 Bft) W-SW 247 10 min 0,000 mm 227 W/m 13,4 C 21,8 C 24,1 km/h (4 Bft) 100,00 %
13.08.2018 19:30 21,3 C 21,3 C 21,8 C 61 % 0 cb 1008,6 hPa 0,0 l/m 6,4 km/h (2 Bft) W 270 0 min 0,000 mm 74 W/m 13,5 C 21,3 C 24,1 km/h (4 Bft) 100,00 %
13.08.2018 19:40 20,7 C 20,7 C 21,3 C 65 % 0 cb 1008,9 hPa 0,0 l/m 9,7 km/h (2 Bft) W 270 0 min 0,000 mm 39 W/m 13,9 C 20,7 C 30,6 km/h (5 Bft) 100,00 %
13.08.2018 19:50 19,8 C 19,8 C 20,7 C 70 % 0 cb 1009,0 hPa 0,0 l/m 9,7 km/h (2 Bft) W-NW 292 0 min 0,000 mm 40 W/m 14,2 C 19,8 C 22,5 km/h (4 Bft) 99,12 %
13.08.2018 20:00 19,2 C 19,2 C 19,8 C 73 % 0 cb 1009,2 hPa 0,0 l/m 8,0 km/h (2 Bft) W 270 0 min 0,102 mm 23 W/m 14,2 C 19,2 C 24,1 km/h (4 Bft) 100,00 %
13.08.2018 20:10 18,7 C 18,7 C 19,2 C 74 % 0 cb 1009,3 hPa 0,0 l/m 11,3 km/h (2 Bft) W-NW 292 0 min 0,000 mm 16 W/m 14,0 C 18,7 C 27,4 km/h (4 Bft) 100,00 %
13.08.2018 20:20 18,4 C 18,4 C 18,7 C 75 % 0 cb 1009,3 hPa 0,0 l/m 9,7 km/h (2 Bft) W-SW 247 0 min 0,000 mm 12 W/m 13,9 C 18,4 C 22,5 km/h (4 Bft) 100,00 %
13.08.2018 20:30 18,3 C 18,3 C 18,4 C 76 % 0 cb 1009,3 hPa 0,0 l/m 6,4 km/h (2 Bft) W 270 0 min 0,000 mm 19 W/m 14,0 C 18,3 C 17,7 km/h (3 Bft) 100,00 %
13.08.2018 20:40 18,1 C 18,1 C 18,3 C 76 % 0 cb 1009,4 hPa 0,0 l/m 4,8 km/h (1 Bft) W 270 0 min 0,000 mm 19 W/m 13,8 C 18,1 C 14,5 km/h (3 Bft) 100,00 %
13.08.2018 20:50 18,0 C 18,0 C 18,1 C 77 % 0 cb 1009,7 hPa 0,0 l/m 6,4 km/h (2 Bft) W 270 0 min 0,000 mm 9 W/m 13,9 C 18,0 C 14,5 km/h (3 Bft) 100,00 %
13.08.2018 21:00 17,8 C 17,8 C 18,0 C 78 % 0 cb 1009,9 hPa 0,0 l/m 4,8 km/h (1 Bft) W 270 0 min 0,025 mm 0 W/m 13,9 C 17,8 C 16,1 km/h (3 Bft) 100,00 %
13.08.2018 21:10 17,8 C 17,8 C 17,8 C 78 % 0 cb 1010,0 hPa 0,0 l/m 4,8 km/h (1 Bft) W 270 0 min 0,000 mm 0 W/m 13,9 C 17,8 C 17,7 km/h (3 Bft) 100,00 %
13.08.2018 21:20 17,7 C 17,7 C 17,8 C 79 % 0 cb 1010,1 hPa 0,0 l/m 4,8 km/h (1 Bft) W 270 0 min 0,000 mm 0 W/m 14,0 C 17,7 C 14,5 km/h (3 Bft) 100,00 %
13.08.2018 21:30 17,6 C 17,6 C 17,7 C 79 % 0 cb 1010,2 hPa 0,0 l/m 3,2 km/h (1 Bft) W-SW 247 0 min 0,000 mm 0 W/m 13,9 C 17,6 C 14,5 km/h (3 Bft) 100,00 %
13.08.2018 21:40 17,4 C 17,4 C 17,6 C 80 % 0 cb 1010,3 hPa 0,0 l/m 1,6 km/h (1 Bft) SW 225 0 min 0,000 mm 0 W/m 13,9 C 17,4 C 12,9 km/h (3 Bft) 100,00 %
13.08.2018 21:50 17,1 C 17,1 C 17,3 C 81 % 0 cb 1010,3 hPa 0,0 l/m 1,6 km/h (1 Bft) W-SW 247 0 min 0,000 mm 0 W/m 13,8 C 17,1 C 6,4 km/h (2 Bft) 100,00 %
13.08.2018 22:00 16,8 C 16,8 C 17,1 C 83 % 0 cb 1010,5 hPa 0,0 l/m 1,6 km/h (1 Bft) W-SW 247 0 min 0,000 mm 0 W/m 13,9 C 16,8 C 6,4 km/h (2 Bft) 100,00 %
13.08.2018 22:10 16,7 C 16,7 C 16,8 C 84 % 0 cb 1010,6 hPa 0,0 l/m 1,6 km/h (1 Bft) W 270 0 min 0,000 mm 0 W/m 14,0 C 16,7 C 6,4 km/h (2 Bft) 99,12 %
13.08.2018 22:20 16,7 C 16,7 C 16,7 C 84 % 0 cb 1010,7 hPa 0,0 l/m 1,6 km/h (1 Bft) W-SW 247 0 min 0,000 mm 0 W/m 14,0 C 16,7 C 4,8 km/h (1 Bft) 100,00 %
13.08.2018 22:30 16,7 C 16,7 C 16,7 C 85 % 0 cb 1010,8 hPa 0,0 l/m 3,2 km/h (1 Bft) W-SW 247 0 min 0,000 mm 0 W/m 14,2 C 16,7 C 9,7 km/h (2 Bft) 100,00 %
13.08.2018 22:40 16,7 C 16,7 C 16,7 C 84 % 0 cb 1010,8 hPa 0,0 l/m 1,6 km/h (1 Bft) W-SW 247 0 min 0,000 mm 0 W/m 14,0 C 16,7 C 6,4 km/h (2 Bft) 100,00 %
13.08.2018 22:50 16,7 C 16,6 C 16,7 C 84 % 0 cb 1010,8 hPa 0,0 l/m 1,6 km/h (1 Bft) W-SW 247 0 min 0,000 mm 0 W/m 14,0 C 16,7 C 4,8 km/h (1 Bft) 100,00 %
13.08.2018 23:00 16,4 C 16,4 C 16,6 C 85 % 0 cb 1010,9 hPa 0,0 l/m 0,0 km/h (0 Bft) W-SW 247 0 min 0,025 mm 0 W/m 13,9 C 16,4 C 4,8 km/h (1 Bft) 100,00 %
13.08.2018 23:10 16,3 C 16,2 C 16,4 C 86 % 0 cb 1010,9 hPa 0,0 l/m 1,6 km/h (1 Bft) W 270 0 min 0,000 mm 0 W/m 14,0 C 16,3 C 4,8 km/h (1 Bft) 100,00 %
13.08.2018 23:20 16,1 C 16,1 C 16,2 C 86 % 0 cb 1010,9 hPa 0,0 l/m 0,0 km/h (0 Bft) W-SW 247 0 min 0,000 mm 0 W/m 13,8 C 16,1 C 3,2 km/h (1 Bft) 100,00 %
13.08.2018 23:30 15,8 C 15,8 C 16,1 C 87 % 0 cb 1010,9 hPa 0,0 l/m 0,0 km/h (0 Bft) W-SW 247 0 min 0,000 mm 0 W/m 13,6 C 15,8 C 1,6 km/h (1 Bft) 99,56 %
13.08.2018 23:40 15,6 C 15,6 C 15,8 C 88 % 0 cb 1010,9 hPa 0,0 l/m 0,0 km/h (0 Bft) W-SW 247 0 min 0,000 mm 0 W/m 13,6 C 15,6 C 1,6 km/h (1 Bft) 100,00 %
13.08.2018 23:50 15,3 C 15,3 C 15,6 C 89 % 0 cb 1011,0 hPa 0,0 l/m 0,0 km/h (0 Bft) W-SW 247 0 min 0,000 mm 0 W/m 13,5 C 15,3 C 3,2 km/h (1 Bft) 100,00 %
_ Min-Zeit 04:00 04:00 03:50 16:40 00:00 06:10 - 00:00 - - - - - 01:20 03:40 01:10 00:10
Minimum _ 13,5 C 13,5 C 13,6 C 54 % 0 cb 1007,1 hPa - 0,0 km/h (0 Bft) - - - - - 9,4 C 13,6 C 0,0 km/h (0 Bft) 79,39 %
_ Max-Zeit 16:40 16:40 16:40 10:40 00:00 23:50 06:40 15:10 - - 10:40 16:00 14:00 12:40 16:40 16:00 00:00
Maximum _ 23,7 C 23,4 C 23,7 C 96 % 0 cb 1011,0 hPa 1,2 l/m 12,9 km/h
W (3 Bft)
- - 10 min 0,457 mm 1030 W/m 18,0 C 23,7 C 30,6 km/h
SW (5 Bft)
100,00 %
Durchschnitt _ 17,5 C 17,4 C 17,6 C 79 % 0 cb 1009,1 hPa #6,4 l/m 4,2 km/h (1 Bft) W - #7:20 h #2,308 mm 277 W/m 13,5 C 17,5 C 12,5 km/h (3 Bft) 99,74 %
Wetterstation Gdesweiler